Location: Lane
(33.5226°N, 79.8788°W)
Time: 11:57:12
(UTC+00:00)

Tiros 1 despin weight - Pass Details

Date: 11 October 2022
Orbit: 590 x 637 km, 48.2° (Epoch: 25 November)

Event Time Altitude Azimuth Distance (km) Brightness Sun altitude
Rises 01:11:57 0° 302° (WNW) 2,880 ? -29.9°
Reaches altitude 10° 01:14:19 10° 296° (WNW) 1,981 ? -30.3°
Enters shadow 01:17:19 34° 267° (W) 1,023 ? -31.0°
Maximum altitude 01:18:39 44° 224° (SW) 863 - -31.2°
Drops below altitude 10° 01:23:01 10° 152° (SSE) 1,998 - -32.1°
Sets 01:25:25 0° 146° (SE) 2,908 - -32.6°
